Location: Arezzo
(43.4170°N, 11.8830°E)
Time: 02:42:48
(UTC+01:00)

STARLINK-2709 - Pass Details

Date: 30 October 2021
Orbit: 546 x 548 km, 53.1° (Epoch: 01 December)

Event Time Altitude Azimuth Distance (km) Brightness Sun altitude
Exits shadow 06:37:35 20° 287° (WNW) 1,303 4.9 -12.8°
Maximum altitude 06:39:47 33° 339° (NNW) 933 4.5 -12.4°
Drops below altitude 10° 06:43:33 10° 44° (NE) 1,821 6.8 -11.7°
Sets 06:45:57 0° 54° (NE) 2,716 7.9 -11.3°
